MQT25TB EDDM-GCTS

Flight info

Callsign MQT25TB
Flight time N/A
Altitude 35000
Route MERSI6N MERSI Y100 TRA DCT LUTIX DCT BENOT DCT NEMOS DCT NINTU DCT MEBAK DCT REPSI DCT LERGA DCT MINSO DCT NARAK DCT AGN DCT PIPOR L866 PPN DCT MIRPO DCT DGO DCT NEA DCT ARDID DCT GANSU DCT BEXAL UN866 KONBA
Aircraft A320/M-SDE3FGHIRWY/LB1

Departure

Time N/A
Airport Munich Airport (EDDM)

Arrival

Time 2026-05-05 15:35
Airport Tenerife Sur Airport (GCTS)
Time Latitude Longitude Altitude Speed Heading
2026-05-05 12:55 41.55696 -5.32638 35013 ft 427 kts 245°
2026-05-05 12:56 41.52925 -5.39656 35015 ft 427 kts 245°
2026-05-05 12:56 41.50151 -5.46665 35020 ft 427 kts 245°
2026-05-05 12:57 41.47368 -5.53661 35019 ft 427 kts 245°
2026-05-05 12:57 41.44576 -5.60650 35024 ft 427 kts 245°
2026-05-05 12:58 41.41811 -5.67583 35016 ft 426 kts 245°
2026-05-05 12:58 41.39028 -5.74554 35021 ft 426 kts 245°
2026-05-05 12:59 41.36237 -5.81521 35013 ft 426 kts 245°
2026-05-05 12:59 41.33440 -5.88469 35014 ft 426 kts 245°
2026-05-05 13:00 41.29242 -5.98880 35020 ft 426 kts 245°
2026-05-05 13:01 41.23640 -6.12733 35019 ft 425 kts 245°
2026-05-05 13:01 41.20829 -6.19639 35027 ft 425 kts 245°
2026-05-05 13:02 41.17948 -6.26502 35025 ft 428 kts 240°
2026-05-05 13:02 41.13868 -6.32348 35027 ft 436 kts 227°
2026-05-05 13:03 41.09332 -6.37701 35027 ft 437 kts 227°
2026-05-05 13:03 41.04799 -6.43059 35028 ft 436 kts 227°
2026-05-05 13:04 41.00272 -6.48416 35030 ft 436 kts 227°
2026-05-05 13:04 40.95734 -6.53757 35033 ft 437 kts 227°
2026-05-05 13:05 40.91194 -6.59083 35037 ft 436 kts 227°
2026-05-05 13:05 40.86654 -6.64406 35042 ft 436 kts 227°
2026-05-05 13:06 40.82123 -6.69720 35045 ft 435 kts 228°
2026-05-05 13:06 40.77595 -6.75019 35044 ft 435 kts 228°
2026-05-05 13:07 40.73067 -6.80302 35048 ft 434 kts 228°
2026-05-05 13:07 40.68544 -6.85562 35053 ft 433 kts 228°
2026-05-05 13:08 40.64030 -6.90804 35052 ft 432 kts 228°
2026-05-05 13:08 40.59529 -6.96028 35053 ft 431 kts 229°
2026-05-05 13:09 40.55038 -7.01231 35058 ft 430 kts 229°
2026-05-05 13:09 40.50550 -7.06418 35056 ft 429 kts 229°
2026-05-05 13:10 40.46075 -7.11581 35059 ft 428 kts 229°
2026-05-05 13:10 40.41608 -7.16732 35052 ft 427 kts 229°
2026-05-05 13:11 40.37139 -7.21856 35054 ft 426 kts 228°
2026-05-05 13:11 40.32684 -7.26966 35047 ft 425 kts 228°
2026-05-05 13:12 40.28264 -7.32028 35049 ft 424 kts 228°
2026-05-05 13:12 40.23815 -7.37101 35049 ft 424 kts 228°
2026-05-05 13:13 40.19374 -7.42166 35054 ft 423 kts 228°
2026-05-05 13:13 40.14943 -7.47223 35057 ft 423 kts 228°
2026-05-05 13:14 40.10505 -7.52268 35052 ft 423 kts 227°
2026-05-05 13:14 40.06059 -7.57308 35050 ft 423 kts 227°
2026-05-05 13:15 40.01620 -7.62336 35053 ft 423 kts 227°
2026-05-05 13:15 39.97181 -7.67359 35057 ft 422 kts 227°
2026-05-05 13:16 39.92741 -7.72376 35058 ft 423 kts 227°
2026-05-05 13:16 39.88270 -7.77335 35061 ft 424 kts 225°
2026-05-05 13:17 39.83607 -7.82075 35062 ft 425 kts 223°
2026-05-05 13:17 39.78896 -7.86696 35070 ft 424 kts 223°
2026-05-05 13:18 39.74197 -7.91346 35073 ft 424 kts 223°
2026-05-05 13:18 39.69534 -7.96004 35079 ft 423 kts 223°
2026-05-05 13:19 39.64875 -8.00658 35083 ft 422 kts 223°
2026-05-05 13:19 39.60221 -8.05297 35081 ft 422 kts 223°
2026-05-05 13:20 39.55572 -8.09925 35078 ft 421 kts 223°
2026-05-05 13:20 39.50920 -8.14528 35082 ft 420 kts 223°
2026-05-05 13:21 39.47060 -8.18348 35081 ft 420 kts 223°
2026-05-05 13:21 39.42426 -8.22937 35083 ft 419 kts 223°
2026-05-05 13:22 39.37790 -8.27518 35083 ft 419 kts 223°
2026-05-05 13:22 39.33156 -8.32082 35088 ft 419 kts 223°
2026-05-05 13:23 39.28523 -8.36645 35087 ft 419 kts 223°
2026-05-05 13:23 39.23891 -8.41192 35088 ft 418 kts 223°
2026-05-05 13:24 39.19262 -8.45737 35088 ft 418 kts 223°
2026-05-05 13:24 39.14633 -8.50277 35092 ft 418 kts 223°
2026-05-05 13:25 39.10003 -8.54797 35095 ft 418 kts 223°
2026-05-05 13:25 39.05374 -8.59305 35094 ft 417 kts 223°
2026-05-05 13:26 39.00754 -8.63808 35100 ft 416 kts 223°
2026-05-05 13:26 38.96145 -8.68293 35110 ft 415 kts 223°
2026-05-05 13:27 38.91536 -8.72768 35116 ft 414 kts 223°
2026-05-05 13:27 38.86943 -8.77224 35119 ft 413 kts 223°
2026-05-05 13:28 38.82353 -8.81664 35122 ft 413 kts 223°
2026-05-05 13:28 38.77772 -8.86089 35120 ft 412 kts 223°
2026-05-05 13:29 38.73198 -8.90508 35122 ft 411 kts 223°
2026-05-05 13:29 38.68629 -8.94923 35121 ft 411 kts 223°
2026-05-05 13:30 38.64060 -8.99315 35117 ft 411 kts 223°
2026-05-05 13:30 38.59506 -9.03663 35117 ft 411 kts 222°
2026-05-05 13:31 38.54931 -9.08039 35114 ft 410 kts 223°
2026-05-05 13:31 38.50338 -9.12452 35115 ft 411 kts 222°
2026-05-05 13:32 38.45764 -9.16826 35113 ft 411 kts 222°
2026-05-05 13:32 38.41185 -9.21185 35120 ft 411 kts 222°
2026-05-05 13:33 38.36633 -9.25509 35121 ft 411 kts 222°
2026-05-05 13:33 38.32054 -9.29860 35120 ft 411 kts 222°
2026-05-05 13:34 38.27473 -9.34216 35120 ft 411 kts 222°
2026-05-05 13:34 38.22888 -9.38564 35121 ft 411 kts 222°
2026-05-05 13:35 38.18290 -9.42907 35118 ft 411 kts 221°
2026-05-05 13:35 38.13699 -9.47247 35116 ft 412 kts 221°
2026-05-05 13:36 38.09101 -9.51591 35124 ft 412 kts 221°
2026-05-05 13:36 38.04499 -9.55924 35124 ft 412 kts 221°
2026-05-05 13:37 37.99891 -9.60250 35127 ft 412 kts 221°
2026-05-05 13:37 37.95281 -9.64566 35132 ft 412 kts 221°
2026-05-05 13:38 37.90668 -9.68886 35129 ft 412 kts 221°
2026-05-05 13:38 37.86059 -9.73205 35127 ft 413 kts 221°
2026-05-05 13:39 37.81444 -9.77523 35130 ft 413 kts 221°
2026-05-05 13:39 37.76821 -9.81834 35132 ft 413 kts 221°
2026-05-05 13:40 37.72192 -9.86142 35131 ft 413 kts 221°
2026-05-05 13:40 37.67591 -9.90426 35133 ft 414 kts 221°
2026-05-05 13:41 37.62954 -9.94734 35135 ft 414 kts 221°
2026-05-05 13:41 37.58309 -9.99037 35134 ft 414 kts 220°
2026-05-05 13:42 37.53658 -10.03340 35134 ft 415 kts 220°
2026-05-05 13:42 37.49005 -10.07644 35135 ft 415 kts 220°
2026-05-05 13:43 37.44341 -10.11952 35136 ft 416 kts 220°
2026-05-05 13:43 37.39668 -10.16257 35135 ft 416 kts 220°
2026-05-05 13:44 37.34994 -10.20557 35132 ft 417 kts 220°
2026-05-05 13:44 37.30310 -10.24856 35132 ft 417 kts 220°
2026-05-05 13:45 37.25618 -10.29155 35132 ft 418 kts 220°
2026-05-05 13:45 37.20919 -10.33462 35136 ft 418 kts 220°
2026-05-05 13:46 37.16214 -10.37760 35134 ft 419 kts 220°
2026-05-05 13:46 37.11502 -10.42061 35136 ft 419 kts 220°
2026-05-05 13:47 37.06785 -10.46368 35138 ft 420 kts 220°
2026-05-05 13:47 37.02064 -10.50669 35138 ft 420 kts 219°
2026-05-05 13:48 36.97335 -10.54961 35138 ft 420 kts 219°
2026-05-05 13:48 36.92600 -10.59252 35135 ft 421 kts 219°
2026-05-05 13:49 36.87857 -10.63541 35143 ft 421 kts 219°
2026-05-05 13:49 36.83107 -10.67821 35144 ft 421 kts 219°
2026-05-05 13:50 36.78360 -10.72103 35139 ft 421 kts 219°
2026-05-05 13:50 36.73609 -10.76387 35143 ft 421 kts 219°
2026-05-05 13:51 36.68853 -10.80669 35148 ft 422 kts 219°
2026-05-05 13:51 36.64095 -10.84947 35140 ft 422 kts 219°
2026-05-05 13:52 36.59329 -10.89221 35142 ft 422 kts 219°
2026-05-05 13:52 36.54566 -10.93484 35150 ft 422 kts 219°
2026-05-05 13:53 36.49801 -10.97749 35156 ft 422 kts 219°
2026-05-05 13:53 36.45033 -11.02006 35153 ft 422 kts 219°
2026-05-05 13:54 36.40262 -11.06255 35153 ft 422 kts 219°
2026-05-05 13:54 36.35526 -11.10480 35153 ft 422 kts 219°
2026-05-05 13:55 36.30730 -11.14747 35150 ft 422 kts 219°
2026-05-05 13:55 36.25954 -11.18980 35149 ft 422 kts 219°
2026-05-05 13:56 36.21184 -11.23204 35150 ft 422 kts 219°
2026-05-05 13:56 36.16416 -11.27426 35149 ft 421 kts 219°
2026-05-05 13:57 36.11644 -11.31645 35146 ft 421 kts 219°
2026-05-05 13:57 36.06870 -11.35854 35145 ft 421 kts 219°
2026-05-05 13:58 36.02092 -11.40054 35149 ft 421 kts 219°
2026-05-05 13:58 35.97312 -11.44245 35148 ft 421 kts 219°
2026-05-05 13:59 35.90185 -11.50523 35152 ft 421 kts 219°
2026-05-05 14:00 35.83798 -11.56146 35148 ft 422 kts 218°
2026-05-05 14:00 35.78241 -11.61015 35145 ft 422 kts 218°
2026-05-05 14:01 35.73460 -11.65200 35146 ft 422 kts 218°
2026-05-05 14:01 35.68672 -11.69386 35151 ft 422 kts 218°
2026-05-05 14:02 35.63875 -11.73564 35149 ft 423 kts 218°
2026-05-05 14:02 35.59078 -11.77744 35149 ft 423 kts 218°
2026-05-05 14:03 35.54274 -11.81924 35146 ft 423 kts 218°
2026-05-05 14:03 35.49464 -11.86105 35147 ft 424 kts 218°
2026-05-05 14:04 35.45457 -11.89577 35146 ft 424 kts 218°
2026-05-05 14:04 35.40632 -11.93754 35146 ft 425 kts 218°
2026-05-05 14:05 35.35797 -11.97922 35148 ft 425 kts 218°
2026-05-05 14:05 35.30961 -12.02096 35147 ft 426 kts 218°
2026-05-05 14:06 35.26115 -12.06280 35142 ft 426 kts 218°
2026-05-05 14:06 35.21263 -12.10459 35145 ft 426 kts 218°
2026-05-05 14:07 35.16408 -12.14629 35146 ft 427 kts 218°
2026-05-05 14:07 35.11550 -12.18803 35148 ft 427 kts 218°
2026-05-05 14:08 35.06679 -12.22978 35147 ft 428 kts 218°
2026-05-05 14:08 35.01808 -12.27147 35146 ft 428 kts 218°
2026-05-05 14:09 34.96929 -12.31314 35149 ft 428 kts 217°
2026-05-05 14:09 34.92045 -12.35487 35145 ft 429 kts 218°
2026-05-05 14:10 34.87163 -12.39663 35145 ft 429 kts 218°
2026-05-05 14:10 34.82264 -12.43828 35145 ft 430 kts 217°
2026-05-05 14:11 34.77359 -12.47989 35146 ft 430 kts 217°
2026-05-05 14:11 34.72481 -12.52126 35146 ft 430 kts 217°
2026-05-05 14:12 34.67572 -12.56285 35146 ft 430 kts 217°
2026-05-05 14:12 34.62657 -12.60442 35144 ft 431 kts 217°
2026-05-05 14:13 34.57740 -12.64594 35144 ft 431 kts 217°
2026-05-05 14:13 34.52809 -12.68749 35152 ft 432 kts 217°
2026-05-05 14:14 34.47873 -12.72902 35143 ft 432 kts 217°
2026-05-05 14:14 34.42940 -12.77058 35144 ft 432 kts 217°
2026-05-05 14:15 34.37998 -12.81210 35151 ft 432 kts 217°
2026-05-05 14:15 34.33048 -12.85357 35145 ft 433 kts 217°
2026-05-05 14:16 34.28093 -12.89495 35147 ft 433 kts 217°
2026-05-05 14:16 34.23140 -12.93641 35146 ft 433 kts 217°
2026-05-05 14:17 34.18199 -12.97818 35146 ft 433 kts 217°
2026-05-05 14:17 34.13262 -13.01997 35148 ft 434 kts 217°
2026-05-05 14:18 34.08315 -13.06169 35145 ft 434 kts 217°
2026-05-05 14:18 34.03362 -13.10329 35144 ft 434 kts 217°
2026-05-05 14:19 33.98402 -13.14484 35139 ft 434 kts 217°
2026-05-05 14:19 33.93440 -13.18635 35138 ft 435 kts 217°
2026-05-05 14:20 33.88469 -13.22789 35136 ft 435 kts 217°
2026-05-05 14:20 33.83489 -13.26951 35139 ft 436 kts 217°
2026-05-05 14:21 33.78509 -13.31106 35138 ft 436 kts 217°
2026-05-05 14:21 33.74650 -13.34322 35139 ft 436 kts 217°
2026-05-05 14:22 33.70058 -13.38140 35138 ft 437 kts 217°
2026-05-05 14:22 33.65066 -13.42290 35140 ft 437 kts 217°
2026-05-05 14:23 33.60065 -13.46445 35142 ft 437 kts 217°
2026-05-05 14:23 33.55089 -13.50562 35143 ft 437 kts 217°
2026-05-05 14:24 33.50097 -13.54693 35147 ft 438 kts 217°
2026-05-05 14:24 33.45090 -13.58833 35159 ft 438 kts 217°
2026-05-05 14:25 33.40067 -13.62972 35156 ft 438 kts 216°
2026-05-05 14:25 33.35046 -13.67105 35156 ft 438 kts 217°
2026-05-05 14:26 33.30020 -13.71235 35159 ft 438 kts 216°
2026-05-05 14:26 33.24997 -13.75366 35158 ft 439 kts 216°
2026-05-05 14:27 33.19968 -13.79485 35154 ft 438 kts 216°
2026-05-05 14:27 33.14947 -13.83598 35153 ft 438 kts 216°
2026-05-05 14:28 33.09923 -13.87696 35150 ft 438 kts 216°
2026-05-05 14:28 33.04887 -13.91785 35155 ft 438 kts 216°
2026-05-05 14:29 32.99846 -13.95858 35156 ft 438 kts 216°
2026-05-05 14:29 32.94807 -13.99923 35155 ft 437 kts 216°
2026-05-05 14:30 32.89783 -14.03995 35153 ft 437 kts 216°
2026-05-05 14:30 32.84760 -14.08060 35153 ft 436 kts 216°
2026-05-05 14:31 32.79729 -14.12097 35151 ft 436 kts 216°
2026-05-05 14:31 32.74704 -14.16140 35149 ft 436 kts 216°
2026-05-05 14:32 32.69718 -14.20142 35147 ft 436 kts 216°
2026-05-05 14:32 32.64696 -14.24161 35143 ft 436 kts 216°
2026-05-05 14:33 32.59670 -14.28189 35141 ft 436 kts 216°
2026-05-05 14:33 32.54647 -14.32207 35136 ft 436 kts 216°
2026-05-05 14:34 32.49611 -14.36228 35135 ft 436 kts 216°
2026-05-05 14:34 32.44577 -14.40243 35136 ft 436 kts 216°
2026-05-05 14:35 32.39553 -14.44265 35130 ft 436 kts 216°
2026-05-05 14:35 32.34517 -14.48275 35127 ft 436 kts 216°
2026-05-05 14:36 32.29475 -14.52272 35133 ft 436 kts 216°
2026-05-05 14:36 32.24441 -14.56269 35135 ft 436 kts 216°
2026-05-05 14:37 32.19408 -14.60261 35133 ft 436 kts 216°
2026-05-05 14:37 32.14381 -14.64242 35129 ft 435 kts 216°
2026-05-05 14:38 32.09387 -14.68178 35133 ft 434 kts 216°
2026-05-05 14:38 32.04377 -14.72141 35134 ft 434 kts 216°
2026-05-05 14:39 31.99367 -14.76097 35131 ft 433 kts 216°
2026-05-05 14:39 31.94356 -14.80031 35120 ft 432 kts 216°
2026-05-05 14:40 31.89354 -14.83959 35121 ft 432 kts 216°
2026-05-05 14:40 31.84355 -14.87881 35120 ft 431 kts 216°
2026-05-05 14:41 31.79365 -14.91791 35129 ft 431 kts 216°
2026-05-05 14:41 31.74390 -14.95698 35127 ft 430 kts 216°
2026-05-05 14:42 31.69423 -14.99587 35131 ft 429 kts 216°
2026-05-05 14:42 31.64458 -15.03454 35129 ft 428 kts 216°
2026-05-05 14:43 31.59510 -15.07308 35127 ft 426 kts 216°
2026-05-05 14:43 31.54605 -15.11135 35129 ft 425 kts 217°
2026-05-05 14:44 31.49679 -15.14961 35130 ft 424 kts 217°
2026-05-05 14:44 31.44768 -15.18773 35124 ft 423 kts 217°
2026-05-05 14:45 31.39869 -15.22576 35126 ft 422 kts 217°
2026-05-05 14:45 31.34983 -15.26362 35121 ft 420 kts 217°
2026-05-05 14:46 31.30111 -15.30129 35118 ft 419 kts 216°
2026-05-05 14:46 31.25068 -15.33576 35118 ft 420 kts 212°
2026-05-05 14:47 31.19905 -15.36757 35112 ft 419 kts 212°
2026-05-05 14:47 31.14762 -15.39932 35110 ft 418 kts 212°
2026-05-05 14:48 31.09663 -15.43167 35112 ft 416 kts 213°
2026-05-05 14:48 31.04585 -15.46412 35113 ft 416 kts 213°
2026-05-05 14:49 30.99515 -15.49633 35113 ft 414 kts 213°
2026-05-05 14:49 30.94464 -15.52842 35114 ft 413 kts 213°
2026-05-05 14:50 30.89420 -15.56038 35117 ft 412 kts 213°
2026-05-05 14:50 30.84398 -15.59211 35114 ft 410 kts 213°
2026-05-05 14:51 30.79431 -15.62354 35115 ft 408 kts 213°
2026-05-05 14:51 30.74447 -15.65503 35114 ft 407 kts 213°
2026-05-05 14:52 30.69484 -15.68637 35118 ft 405 kts 213°
2026-05-05 14:52 30.64535 -15.71745 35112 ft 404 kts 214°
2026-05-05 14:53 30.59608 -15.74838 35110 ft 402 kts 214°
2026-05-05 14:53 30.54705 -15.77923 35112 ft 400 kts 214°
2026-05-05 14:54 30.50646 -15.80471 35107 ft 398 kts 214°
2026-05-05 14:54 30.45781 -15.83523 35103 ft 397 kts 214°
2026-05-05 14:55 30.40932 -15.86565 35104 ft 396 kts 214°
2026-05-05 14:55 30.36100 -15.89596 35106 ft 394 kts 214°
2026-05-05 14:56 30.31270 -15.92606 35107 ft 393 kts 214°
2026-05-05 14:56 30.26460 -15.95609 35105 ft 392 kts 214°
2026-05-05 14:57 30.21673 -15.98600 35103 ft 391 kts 214°
2026-05-05 14:57 30.16883 -16.01587 35100 ft 390 kts 214°
2026-05-05 14:58 30.12104 -16.04553 35101 ft 390 kts 214°
2026-05-05 14:58 30.07332 -16.07513 35101 ft 389 kts 214°
2026-05-05 14:59 30.02567 -16.10474 35100 ft 388 kts 214°
2026-05-05 14:59 29.97818 -16.13415 35099 ft 387 kts 214°
2026-05-05 15:00 29.93880 -16.15849 35098 ft 386 kts 214°
2026-05-05 15:00 29.88356 -16.19268 35095 ft 385 kts 214°
2026-05-05 15:01 29.83683 -16.22161 35095 ft 384 kts 214°
2026-05-05 15:01 29.79023 -16.25045 35095 ft 382 kts 214°
2026-05-05 15:02 29.74328 -16.27945 35092 ft 382 kts 214°
2026-05-05 15:02 29.69647 -16.30827 35091 ft 381 kts 214°
2026-05-05 15:03 29.64971 -16.33702 35097 ft 381 kts 215°
2026-05-05 15:03 29.60311 -16.36572 35092 ft 379 kts 216°
2026-05-05 15:04 29.56151 -16.40115 35098 ft 371 kts 224°
2026-05-05 15:04 29.52167 -16.43878 35091 ft 371 kts 224°
2026-05-05 15:05 29.46193 -16.49505 35097 ft 370 kts 224°
2026-05-05 15:06 29.42218 -16.53251 35091 ft 369 kts 224°
2026-05-05 15:06 29.38249 -16.56991 35084 ft 369 kts 224°
2026-05-05 15:07 29.34280 -16.60720 35084 ft 369 kts 224°
2026-05-05 15:07 29.30328 -16.64430 35080 ft 368 kts 224°
2026-05-05 15:08 29.26367 -16.68148 35083 ft 367 kts 224°
2026-05-05 15:08 29.22418 -16.71849 35077 ft 367 kts 224°
2026-05-05 15:09 29.18466 -16.75548 35080 ft 367 kts 224°
2026-05-05 15:09 29.14512 -16.79244 35076 ft 367 kts 224°
2026-05-05 15:10 29.10559 -16.82937 35076 ft 367 kts 224°
2026-05-05 15:10 29.06608 -16.86630 35075 ft 366 kts 224°
2026-05-05 15:11 29.02683 -16.90284 35077 ft 366 kts 224°
2026-05-05 15:11 28.98728 -16.93959 34966 ft 367 kts 224°
2026-05-05 15:11 28.96752 -16.95799 34722 ft 366 kts 224°
2026-05-05 15:12 28.94780 -16.97637 34486 ft 366 kts 224°
2026-05-05 15:12 28.92809 -16.99470 34028 ft 366 kts 224°
2026-05-05 15:12 28.90838 -17.01297 33183 ft 365 kts 223°
2026-05-05 15:12 28.88867 -17.03124 32333 ft 365 kts 223°
2026-05-05 15:13 28.86891 -17.04959 31468 ft 367 kts 223°
2026-05-05 15:13 28.84916 -17.06797 30641 ft 367 kts 223°
2026-05-05 15:13 28.82925 -17.08645 29646 ft 370 kts 223°
2026-05-05 15:13 28.80921 -17.10504 28609 ft 373 kts 223°
2026-05-05 15:14 28.78917 -17.12356 28044 ft 366 kts 223°
2026-05-05 15:14 28.76953 -17.14167 27457 ft 361 kts 223°
2026-05-05 15:14 28.75013 -17.15960 26850 ft 357 kts 223°
2026-05-05 15:14 28.73091 -17.17737 26247 ft 354 kts 223°
2026-05-05 15:15 28.71182 -17.19502 25658 ft 352 kts 223°
2026-05-05 15:15 28.69286 -17.21259 25078 ft 350 kts 223°
2026-05-05 15:15 28.67399 -17.23003 24504 ft 349 kts 223°
2026-05-05 15:15 28.65519 -17.24737 23928 ft 347 kts 223°
2026-05-05 15:16 28.63647 -17.26464 23322 ft 346 kts 223°
2026-05-05 15:16 28.61782 -17.28186 22744 ft 344 kts 223°
2026-05-05 15:16 28.59933 -17.29893 22226 ft 342 kts 223°
2026-05-05 15:16 28.58090 -17.31594 21704 ft 340 kts 223°
2026-05-05 15:17 28.56259 -17.33282 21218 ft 338 kts 223°
2026-05-05 15:17 28.54437 -17.34960 20729 ft 336 kts 222°
2026-05-05 15:17 28.52619 -17.36629 20269 ft 335 kts 222°
2026-05-05 15:17 28.50812 -17.38292 19804 ft 334 kts 222°
2026-05-05 15:18 28.48993 -17.39925 19358 ft 334 kts 218°
2026-05-05 15:18 28.46870 -17.41041 18908 ft 342 kts 200°
2026-05-05 15:18 28.44470 -17.41277 18405 ft 356 kts 180°
2026-05-05 15:18 28.42069 -17.40502 17912 ft 367 kts 161°
2026-05-05 15:19 28.40032 -17.38717 17391 ft 371 kts 136°
2026-05-05 15:19 28.38669 -17.36342 17303 ft 358 kts 126°
2026-05-05 15:19 28.37406 -17.33891 17227 ft 354 kts 127°
2026-05-05 15:19 28.36175 -17.31525 17087 ft 351 kts 127°
2026-05-05 15:20 28.34934 -17.29151 16920 ft 349 kts 127°
2026-05-05 15:20 28.33687 -17.26771 16368 ft 355 kts 126°
2026-05-05 15:20 28.32417 -17.24346 15720 ft 357 kts 126°
2026-05-05 15:20 28.31166 -17.21940 15116 ft 349 kts 125°
2026-05-05 15:21 28.29948 -17.19589 14527 ft 342 kts 125°
2026-05-05 15:21 28.28753 -17.17286 13944 ft 336 kts 124°
2026-05-05 15:21 28.27577 -17.15019 13329 ft 329 kts 124°
2026-05-05 15:21 28.26427 -17.12806 12764 ft 322 kts 125°
2026-05-05 15:22 28.25243 -17.10684 12213 ft 316 kts 127°
2026-05-05 15:22 28.24009 -17.08642 11655 ft 312 kts 129°
2026-05-05 15:22 28.22763 -17.06646 11109 ft 307 kts 129°
2026-05-05 15:22 28.21534 -17.04692 10629 ft 304 kts 129°
2026-05-05 15:23 28.20311 -17.02746 10160 ft 303 kts 128°
2026-05-05 15:23 28.19086 -17.00784 9663 ft 306 kts 128°
2026-05-05 15:23 28.17856 -16.98808 9150 ft 307 kts 129°
2026-05-05 15:23 28.16351 -16.97133 8635 ft 301 kts 148°
2026-05-05 15:24 28.14519 -16.96094 8012 ft 290 kts 161°
2026-05-05 15:24 28.12655 -16.95275 7398 ft 284 kts 160°
2026-05-05 15:24 28.10829 -16.94467 6805 ft 280 kts 160°
2026-05-05 15:24 28.09028 -16.93667 6202 ft 276 kts 159°
2026-05-05 15:25 28.07297 -16.92891 5920 ft 258 kts 159°
2026-05-05 15:25 28.05685 -16.92168 5672 ft 241 kts 159°
2026-05-05 15:25 28.04158 -16.91484 5427 ft 234 kts 160°
2026-05-05 15:25 28.02583 -16.91165 5178 ft 230 kts 187°
2026-05-05 15:26 28.01108 -16.91807 4936 ft 228 kts 219°
2026-05-05 15:26 28.00163 -16.93210 4697 ft 226 kts 247°
2026-05-05 15:26 27.99445 -16.94792 4448 ft 227 kts 230°
2026-05-05 15:26 27.98184 -16.95841 4204 ft 228 kts 207°
2026-05-05 15:27 27.96700 -16.96370 3959 ft 228 kts 187°
2026-05-05 15:27 27.95106 -16.96259 3706 ft 228 kts 164°
2026-05-05 15:27 27.93708 -16.95495 3464 ft 227 kts 142°
2026-05-05 15:27 27.92652 -16.94188 3216 ft 226 kts 120°
2026-05-05 15:28 27.92105 -16.92546 3042 ft 223 kts 98°
2026-05-05 15:28 27.92119 -16.90838 3005 ft 215 kts 77°
2026-05-05 15:28 27.92613 -16.89260 3004 ft 213 kts 65°
2026-05-05 15:28 27.93193 -16.87723 3003 ft 212 kts 66°
2026-05-05 15:29 27.93762 -16.86186 3003 ft 212 kts 65°
2026-05-05 15:29 27.94364 -16.84660 2948 ft 213 kts 64°
2026-05-05 15:29 27.94982 -16.83146 2834 ft 212 kts 63°
2026-05-05 15:29 27.95650 -16.81667 2707 ft 210 kts 56°
2026-05-05 15:30 27.96359 -16.80217 2597 ft 211 kts 63°
2026-05-05 15:30 27.96949 -16.78698 2507 ft 210 kts 65°
2026-05-05 15:30 27.97493 -16.77166 2506 ft 210 kts 66°
2026-05-05 15:30 27.98031 -16.75631 2503 ft 210 kts 66°
2026-05-05 15:31 27.98569 -16.74093 2486 ft 211 kts 66°
2026-05-05 15:31 27.99098 -16.72579 2431 ft 201 kts 66°
2026-05-05 15:31 27.99598 -16.71148 2396 ft 192 kts 66°
2026-05-05 15:31 28.00084 -16.69759 2243 ft 188 kts 65°
2026-05-05 15:32 28.00559 -16.68398 2002 ft 184 kts 66°
2026-05-05 15:32 28.01027 -16.67060 1760 ft 180 kts 65°
2026-05-05 15:32 28.01469 -16.65792 1544 ft 164 kts 67°
2026-05-05 15:32 28.01865 -16.64655 1328 ft 148 kts 66°
2026-05-05 15:33 28.02226 -16.63622 1144 ft 138 kts 66°
2026-05-05 15:33 28.02570 -16.62637 951 ft 131 kts 69°
2026-05-05 15:33 28.02904 -16.61679 775 ft 130 kts 71°
2026-05-05 15:33 28.03237 -16.60724 601 ft 131 kts 73°
2026-05-05 15:34 28.03577 -16.59750 411 ft 134 kts 73°
2026-05-05 15:34 28.03922 -16.58783 242 ft 132 kts 73°
2026-05-05 15:34 28.04235 -16.57893 203 ft 111 kts 70°
2026-05-05 15:34 28.04425 -16.57238 199 ft 70 kts 64°
2026-05-05 15:35 28.04566 -16.56984 206 ft 27 kts 45°
2026-05-05 15:35 28.04681 -16.56844 216 ft 20 kts 49°
2026-05-05 15:35 28.04724 -16.56797 221 ft 0 kts 32°
2026-05-05 15:37 28.04747 -16.56795 219 ft 5 kts 348°
2026-05-05 15:37 28.04772 -16.56840 222 ft 11 kts 276°
2026-05-05 15:38 28.04745 -16.56955 222 ft 19 kts 250°
2026-05-05 15:38 28.04686 -16.57115 223 ft 24 kts 243°
2026-05-05 15:38 28.04633 -16.57250 224 ft 18 kts 248°
2026-05-05 15:38 28.04590 -16.57373 224 ft 16 kts 248°
2026-05-05 15:39 28.04549 -16.57489 225 ft 15 kts 248°
2026-05-05 15:39 28.04514 -16.57589 223 ft 12 kts 248°
2026-05-05 15:39 28.04515 -16.57664 224 ft 10 kts 313°
2026-05-05 15:39 28.04571 -16.57698 223 ft 8 kts 333°
2026-05-05 15:40 28.04592 -16.57741 224 ft 5 kts 275°
2026-05-05 15:40 28.04586 -16.57777 224 ft 5 kts 252°
2026-05-05 15:40 28.04607 -16.57825 226 ft 8 kts 322°
2026-05-05 15:40 28.04649 -16.57842 227 ft 0 kts 338°